Time,TemperatureF,DewpointF,PressureIn,WindDirection,WindDirectionDegrees,WindSpeedMPH,WindSpeedGustMPH,Humidity,HourlyPrecipIn,Conditions,Clouds,dailyrainin,SoftwareType,DateUTC
2014-04-18 00:22:00,68.0,25.0,30.13,SSE,159,7.0,14.0,20,0.00,,,0.00,,2014-04-18 06:22:00,
2014-04-18 00:52:00,67.0,25.0,30.13,SW,217,1.0,7.0,20,0.00,,,0.00,,2014-04-18 06:52:00,
2014-04-18 01:22:00,66.0,27.0,30.12,SW,228,5.0,8.0,23,0.00,,,0.00,,2014-04-18 07:22:00,
2014-04-18 01:52:00,66.0,26.0,30.12,SW,232,8.0,15.0,22,0.00,,,0.00,,2014-04-18 07:52:00,
2014-04-18 02:22:00,66.0,27.0,30.12,WNW,288,7.0,13.0,23,0.00,,,0.00,,2014-04-18 08:22:00,
2014-04-18 02:52:00,65.0,26.0,30.11,SSE,153,7.0,15.0,23,0.00,,,0.00,,2014-04-18 08:52:00,
2014-04-18 03:22:00,65.0,27.0,30.11,South,176,7.0,15.0,24,0.00,,,0.00,,2014-04-18 09:22:00,
2014-04-18 03:54:00,64.0,27.0,30.11,South,188,8.0,12.0,25,0.00,,,0.00,,2014-04-18 09:54:00,
2014-04-18 04:23:00,63.0,28.0,30.11,SW,215,3.0,12.0,26,0.00,,,0.00,,2014-04-18 10:23:00,
2014-04-18 04:54:00,61.0,30.0,30.12,West,281,3.0,7.0,31,0.00,,,0.00,,2014-04-18 10:54:00,
2014-04-18 05:22:00,60.0,31.0,30.12,West,262,3.0,7.0,33,0.00,,,0.00,,2014-04-18 11:22:00,
2014-04-18 05:53:00,59.0,32.0,30.12,WSW,253,5.0,7.0,36,0.00,,,0.00,,2014-04-18 11:53:00,
2014-04-18 06:22:00,60.0,33.0,30.12,East,94,2.0,5.0,36,0.00,,,0.00,,2014-04-18 12:22:00,
2014-04-18 06:53:00,58.0,32.0,30.13,East,90,0.0,4.0,37,0.00,,,0.00,,2014-04-18 12:53:00,
2014-04-18 07:22:00,57.0,32.0,30.14,NNE,25,0.0,4.0,38,0.00,,,0.00,,2014-04-18 13:22:00,
2014-04-18 07:52:00,57.0,32.0,30.14,NNE,25,0.0,0.0,38,0.00,,,0.00,,2014-04-18 13:52:00,
2014-04-18 08:22:00,60.0,32.0,30.15,North,353,0.0,0.0,35,0.00,,,0.00,,2014-04-18 14:22:00,
2014-04-18 08:51:00,62.0,32.0,30.16,NNW,329,1.0,4.0,32,0.00,,,0.00,,2014-04-18 14:51:00,
2014-04-18 09:21:00,67.0,36.0,30.16,SE,146,5.0,14.0,32,0.00,,,0.00,,2014-04-18 15:21:00,
2014-04-18 09:53:00,67.0,35.0,30.16,SW,232,8.0,17.0,31,0.00,,,0.00,,2014-04-18 15:53:00,
2014-04-18 10:22:00,69.0,35.0,30.16,SE,135,8.0,16.0,28,0.00,,,0.00,,2014-04-18 16:22:00,
2014-04-18 10:52:00,70.0,35.0,30.16,SSW,198,8.0,17.0,28,0.00,,,0.00,,2014-04-18 16:52:00,
2014-04-18 11:22:00,70.0,34.0,30.16,SW,221,7.0,17.0,27,0.00,,,0.00,,2014-04-18 17:22:00,
2014-04-18 11:42:00,70.0,35.0,30.16,SW,228,10.0,18.0,28,0.00,,,0.00,,2014-04-18 17:42:00,
2014-04-18 11:51:00,71.0,35.0,30.15,South,172,8.0,14.0,27,0.00,,,0.00,,2014-04-18 17:51:00,
2014-04-18 12:21:00,72.0,35.0,30.14,SE,146,10.0,17.0,26,0.00,,,0.00,,2014-04-18 18:21:00,
2014-04-18 12:51:00,73.0,35.0,30.14,SSE,163,7.0,16.0,25,0.00,,,0.00,,2014-04-18 18:51:00,
2014-04-18 13:21:00,75.0,31.0,30.12,SSE,166,9.0,17.0,20,0.00,,,0.00,,2014-04-18 19:21:00,
2014-04-18 13:52:00,77.0,30.0,30.11,SSW,197,9.0,18.0,18,0.00,,,0.00,,2014-04-18 19:52:00,
2014-04-18 14:51:00,80.0,28.0,30.08,South,172,10.0,14.0,15,0.00,,,0.00,,2014-04-18 20:51:00,
2014-04-18 18:42:00,77.0,29.0,30.03,SW,222,15.0,36.0,17,0.00,,,0.00,,2014-04-19 00:42:00,
2014-04-18 18:52:00,74.0,40.0,30.02,NNW,329,8.0,16.0,29,0.01,,,0.00,,2014-04-19 00:52:00,
2014-04-18 19:22:00,74.0,37.0,30.03,East,89,4.0,10.0,26,0.01,,,0.00,,2014-04-19 01:22:00,
2014-04-18 19:52:00,75.0,36.0,30.03,SSE,165,3.0,11.0,24,0.00,,,0.00,,2014-04-19 01:52:00,
2014-04-18 20:22:00,75.0,29.0,30.05,West,277,6.0,12.0,18,0.00,,,0.00,,2014-04-19 02:22:00,
2014-04-18 20:52:00,74.0,30.0,30.06,NW,321,2.0,5.0,20,0.00,,,0.00,,2014-04-19 02:52:00,
2014-04-18 21:22:00,73.0,30.0,30.05,NNE,14,0.0,7.0,20,0.00,,,0.00,,2014-04-19 03:22:00,